パンスターズ彗星

C/2011 P2 ( PanSTARRS )

English version
Home page
Updated on February 10, 2013

---------------------------------------------------------------------

・ プロフィール

発見日 2011年8月3日
発見光度 21.1等
発見者 Pan-STARRS 1 telescope (Haleakala)

・ 写真集

・ 軌道要素

Epoch 2010 Sept. 1.0 TT = JDT 2455440.5
T 2010 Sept. 12.71822 TT                                MPC
q   6.1468540            (2000.0)            P               Q
n   0.03222252     Peri.   76.32035     +0.17439990     +0.98262070
a   9.7805449      Node   204.00605     -0.95301049     +0.15219909
e   0.3715223      Incl.    8.98972     -0.24770080     +0.10626377
P  30.6
From 41 observations 2011 June 22-Aug. 27, mean residual 0".3.

・ 光度変化

        m1 = 8.0 + 5 logΔ + 10.0 log r

---------------------------------------------------------------------

軌道要素はM.P.E.C. 2011-R11に掲載されたものです。
光度グラフはComet for Windowsで作成したものです。

---------------------------------------------------------------------

Copyright(C) Seiichi Yoshida (comet@aerith.net). All rights reserved.